This is the latest recevied weather packets stored in our database for station/object DPX206-15. If no packets are shown the sender has not sent any weather packets the latest 10 day(s).
| Time | Temp. | Humidity | Pressure | Rain* | Wind** | Luminosity | Snow |
|---|---|---|---|---|---|---|---|
| 1778092180 | 10.56° C | 95% | 1007.4 hPa | 0 mm | - | 6 W/m² | - |
| 1778091430 | 10.56° C | 95% | 1007.4 hPa | 0 mm | - | 6 W/m² | - |
| 1778090679 | 10.56° C | 95% | 1007.4 hPa | 0 mm | - | 6 W/m² | - |
| 1778089929 | 10.56° C | 95% | 1007.4 hPa | 0 mm | - | 6 W/m² | - |
| 1778089179 | 10.56° C | 95% | 1007.4 hPa | 0 mm | - | 6 W/m² | - |
| 1778088429 | 10.56° C | 95% | 1007.4 hPa | 0 mm | - | 6 W/m² | - |
| 1778087678 | 10.56° C | 95% | 1007.4 hPa | 0 mm | - | 6 W/m² | - |
| 1778086928 | 10.56° C | 95% | 1007.4 hPa | 0 mm | - | 6 W/m² | - |
| 1778086178 | 10.56° C | 94% | 1007.4 hPa | 0 mm | - | 3 W/m² | - |
| 1778085431 | 10.56° C | 94% | 1007 hPa | 0 mm | - | 12 W/m² | - |
| 1778084678 | 11.11° C | 94% | 1007 hPa | 0 mm | - | 15 W/m² | - |
| 1778083928 | 11.11° C | 94% | 1007 hPa | 0 mm | - | 19 W/m² | - |
| 1778083181 | 11.11° C | 94% | 1007.4 hPa | 0 mm | - | 28 W/m² | - |
| 1778082428 | 11.11° C | 94% | 1007.1 hPa | 0 mm | - | 29 W/m² | - |
| 1778081677 | 11.11° C | 94% | 1007.2 hPa | 0 mm | - | 25 W/m² | - |
| 1778080927 | 11.11° C | 94% | 1007.2 hPa | 0 mm | - | 34 W/m² | - |
| 1778080177 | 11.11° C | 94% | 1007.4 hPa | 0 mm | - | 36 W/m² | - |
| 1778079427 | 11.11° C | 94% | 1007.1 hPa | 0.25 mm | - | 44 W/m² | - |
| 1778078676 | 11.11° C | 94% | 1007.2 hPa | 0.51 mm | - | 44 W/m² | - |
| 1778077926 | 11.11° C | 94% | 1007.3 hPa | 0.51 mm | - | 51 W/m² | - |
| 1778077176 | 11.11° C | 94% | 1007.3 hPa | 0.51 mm | - | 48 W/m² | - |
| 1778076426 | 10.56° C | 94% | 1007.6 hPa | 0.51 mm | - | 75 W/m² | - |
| 1778075676 | 10.56° C | 94% | 1007.4 hPa | 0.51 mm | - | 39 W/m² | - |
| 1778074926 | 11.11° C | 94% | 1007.4 hPa | 0.51 mm | - | 30 W/m² | - |
| 1778074175 | 11.11° C | 94% | 1007.2 hPa | 0.51 mm | - | 33 W/m² | - |
* Rain latest hour (hover to see other rain measurements)
** Current wind speed in m/s (hover to see current wind gust speed)